SCP
0 0 0 -0 -0 -0 0 0 0 0 0 0 0 0 0 0 0 0 0 -0 -0 -0 -0 -0 -0 -0 -0 -0 -0 -0 -0 -0 -0 -0 -0 -0 -0 -0 -0 -0 -0 0 0
0 0 0 -0 -0 0 0 0 0 0 0 0 0 0 0 0 0 0 0 0 -0 -0 -0 -0 -0 -0 -0 -0 -0 -0 -0 -0 -0 -0 -0 -0 -0 -0 -0 -0 -0 0 0
0 0 0 0 -0 0 0 0 0 0 0 0 0 0 0 0 0 0 0 -0 -0 -0 -0 -0 -0 -0 -0 -0 -0 -0 -0 -0 -0 -0 0 0 -0 -0 0 0 0 0 0
0 0 0 0 0 0 0 0 0 0 0 0 0 0 0 0 0 0 0 -0 -0 -0 -0 -0 -0 -0 -0 -0 -0 -0 -0 -0 0 0 0 0 0 -0 0 0 0 0 0
0 0 0 0 0 0 0 0 0 0 0 0 0 0 0 0 0 0 0 -0 -0 -0 -0 -0 -0 -0 -0 -0 -0 -0 -0 -0 0 0 0 0 0 0 0 0 0 0 0
0 0 0 0 0 0 0 0 0 0 0 0 0 0 0 0 0 0 0 -0 -0 -0 -0 -0 -0 -0 -0 -0 -0 -0 -0 0 0 0 0 0 0 0 0 0 0 0 0
0 0 0 0 0 0 0 0 0 0 0 0 0 0 0 0 0 0 0 0 -0 -0 -0 -0 -0 -0 -0 -0 -0 -0 -0 -0 0 0 0 0 0 0 0 0 -0 -0 0
0 1 0 0 0 0 0 0 0 0 0 0 0 0 0 0 0 0 0 0 -0 -0 -0 -0 -0 -0 -0 -0 -0 -0 -0 0 0 0 0 0 0 0 -0 -0 -0 -0 -0
1 1 1 1 0 0 0 0 0 0 0 0 0 0 0 0 0 0 0 0 0 -0 -0 -0 -0 -0 -0 -0 -0 -0 -0 0 0 0 0 0 0 -0 -0 -0 -0 0 0
0 0 0 0 0 0 0 0 0 0 0 0 0 0 0 0 0 0 0 0 0 0 0 0 0 -0 -0 -0 -0 -0 0 0 0 0 0 0 0 0 -0 0 0 0 0
0 0 0 0 0 0 0 0 0 0 0 0 0 0 0 0 0 0 0 0 0 0 0 0 0 0 0 0 0 0 0 0 0 0 0 0 0 0 0 0 0 0 0
-0 -0 0 0 0 0 0 0 0 0 0 0 0 0 0 0 0 0 0 0 0 0 0 0 0 0 0 0 -0 0 0 0 0 0 -0 0 0 0 0 0 0 0 0
0 -0 0 0 0 0 0 0 0 0 0 0 0 0 0 0 0 0 0 0 0 0 0 0 0 0 0 0 -0 -0 0 0 0 -0 -0 0 0 0 0 0 0 0 0
0 0 -0 0 0 0 0 0 0 0 0 0 0 0 0 0 0 0 0 0 0 0 0 0 0 0 0 0 0 0 0 0 0 0 0 -0 0 0 0 0 0 0 0
0 0 -0 0 0 0 0 0 0 0 0 0 0 0 0 0 0 0 0 0 0 0 0 0 0 0 0 0 0 0 0 0 0 0 0 -0 0 0 0 0 0 0 0
0 0 0 0 0 0 0 0 0 0 0 0 0 0 0 0 0 0 0 0 0 0 0 0 0 0 0 0 0 0 0 0 0 0 0 0 0 0 0 0 0 0 0
0 0 0 0 0 0 0 0 0 0 0 0 0 0 0 0 0 0 0 0 0 0 0 0 0 0 0 0 0 0 0 0 0 0 0 0 0 0 0 0 0 0 -0
0 0 0 0 0 -0 -0 0 0 0 0 0 0 0 0 0 0 0 0 0 0 0 0 0 0 0 0 0 0 0 0 0 0 0 0 0 0 0 0 0 0 0 0
0 0 0 0 0 0 0 -0 0 0 0 0 0 0 0 0 0 0 0 0 0 0 0 0 0 0 0 0 0 0 0 0 0 0 0 0 0 0 0 0 0 0 0
0 0 0 0 0 0 -0 0 0 0 0 0 0 0 0 0 0 0 0 0 0 0 0 0 0 0 0 0 0 0 0 0 0 0 0 0 0 0 0 0 0 0 0
0 0 0 0 0 0 0 0 0 0 0 0 0 0 0 0 0 0 0 0 0 0 0 0 0 0 0 0 0 0 0 0 0 0 0 0 0 0 0 0 0 0 0
0 0 0 0 0 0 0 0 0 0 0 0 0 0 0 0 0 0 0 0 0 0 0 0 0 0 0 0 0 0 0 0 0 0 0 0 0 0 0 0 0 0 0
0 0 0 0 0 0 0 0 0 0 0 0 0 0 0 0 0 0 0 0 0 0 0 0 0 0 0 0 0 0 0 0 0 0 0 0 0 0 0 0 0 0 0
0 0 0 0 0 0 0 0 0 0 -0 0 0 0 0 0 0 0 0 0 0 0 0 0 0 0 0 0 0 0 0 0 0 0 0 0 0 0 0 0 0 0 0
-0 0 0 -0 0 0 0 0 0 0 0 -0 0 0 0 0 0 0 0 0 0 0 0 0 0 0 0 0 0 0 0 0 0 0 0 0 0 0 0 0 0 0 0
-0 -0 0 0 0 0 0 0 0 0 0 0 -0 0 0 -0 0 0 0 0 0 0 0 0 0 0 0 0 0 0 0 0 0 0 0 0 0 0 0 0 0 0 0
Wind_Speed_500mb
60 55 47 44 41 38 34 31 32 35 35 35 33 31 31 34 34 32 30 24 27 23 37 36 32 27 25 27 28 26 31 31 35 27 39 37 30 28 25 20 20 30 37
65 57 49 47 41 39 37 33 31 35 37 37 33 33 32 33 35 35 27 22 23 28 35 33 29 27 27 26 25 24 32 40 31 32 48 39 30 26 23 24 26 37 31
62 56 51 49 43 41 39 35 31 32 35 34 34 33 31 32 31 32 30 33 33 39 35 31 30 29 26 25 25 31 32 32 33 36 44 39 28 24 30 27 34 28 29
59 56 51 48 43 42 42 36 31 33 33 34 34 35 31 32 31 33 36 38 38 39 33 30 30 29 25 23 26 30 33 29 25 31 37 39 32 22 30 24 25 26 25
60 57 52 47 44 43 41 37 33 32 34 33 34 36 32 28 29 32 37 43 39 39 34 27 25 26 23 19 22 26 29 26 23 26 28 30 26 21 27 26 22 17 17
54 56 53 48 46 43 42 39 39 35 33 32 33 36 36 28 25 29 39 50 44 39 34 27 22 24 20 17 18 21 25 22 14 17 18 19 21 19 18 17 10 14 18
48 52 54 51 51 45 44 40 41 38 34 32 31 33 34 34 27 27 40 52 47 36 30 28 22 20 15 15 18 19 21 20 16 13 18 25 18 23 20 15 22 24 15
44 51 49 49 51 48 47 42 41 35 32 30 30 31 32 35 34 31 48 49 39 34 33 28 23 19 16 16 17 17 16 17 15 11 13 16 18 21 17 13 15 19 24
46 48 50 50 51 47 47 44 41 36 31 25 28 29 31 34 36 38 51 48 36 36 32 30 24 20 18 16 16 15 14 16 17 13 9 11 17 19 12 4 13 12 7
35 39 46 52 52 50 46 43 42 36 29 26 28 27 28 37 43 44 45 35 35 34 32 32 30 25 20 13 13 12 9 9 10 10 11 4 10 12 14 4 6 7 8
28 23 38 47 53 52 48 44 40 33 28 30 31 30 29 37 44 44 43 36 34 35 35 35 35 32 23 15 9 9 8 8 9 11 11 5 2 5 3 3 5 6 6
51 45 41 37 54 51 51 49 44 35 30 35 35 34 31 32 43 42 44 40 31 39 38 36 33 33 26 16 5 8 6 4 8 11 12 10 4 2 2 3 3 4 6
21 40 60 62 62 56 52 49 43 36 35 37 38 36 35 33 41 45 46 38 37 38 38 39 34 31 27 16 8 5 14 1 7 9 8 8 6 4 5 6 7 8 9
36 20 36 61 51 52 51 49 41 38 42 44 43 40 40 34 37 46 46 43 37 39 36 38 35 33 27 20 13 4 8 10 10 11 10 9 6 8 10 9 10 11 13
35 22 6 52 18 54 47 41 38 39 44 46 45 41 42 37 35 38 41 42 38 37 38 38 33 32 25 20 15 14 9 16 17 12 9 10 10 12 14 13 14 17 19
26 29 24 25 45 31 51 42 38 41 43 45 46 44 43 40 37 36 36 35 36 35 38 39 36 32 29 22 19 18 13 24 23 20 18 17 16 18 18 16 14 20 24
17 12 7 28 26 38 19 44 43 42 48 44 44 45 45 44 40 34 34 34 29 31 31 34 38 33 33 27 24 22 25 29 25 24 23 23 25 26 27 26 23 22 22
17 11 10 9 19 42 47 14 45 48 50 51 50 48 44 45 42 38 36 34 31 31 33 35 37 39 34 31 28 27 23 26 24 20 23 23 24 26 28 27 25 27 30
18 11 9 8 12 10 26 23 15 50 56 57 54 52 50 48 43 40 38 38 36 36 33 37 38 37 35 32 33 29 29 29 28 31 28 28 29 29 30 32 34 30 29
20 16 13 14 8 7 11 17 15 14 22 63 58 58 53 48 46 45 43 45 42 42 36 38 37 37 36 31 33 35 35 34 33 36 35 33 33 33 32 33 27 23 22
22 19 18 17 12 8 16 13 18 17 19 36 43 71 63 50 47 46 44 46 48 45 42 39 42 41 41 37 38 37 36 38 38 33 36 34 29 20 18 13 9 11 13
34 28 23 17 18 14 8 11 10 11 17 20 20 36 61 55 52 48 46 46 48 49 49 46 45 49 46 40 41 35 29 27 26 19 11 11 9 9 4 7 9 13 17
36 31 28 22 16 17 20 13 17 13 13 23 5 10 49 52 54 53 53 49 48 49 53 50 46 47 47 44 42 32 11 13 7 14 11 7 10 5 13 19 23 25 26
37 33 29 27 22 14 22 16 24 26 23 18 20 12 35 27 68 58 54 50 44 43 46 46 43 39 39 44 44 46 40 36 15 12 15 12 14 17 18 24 28 31 32
35 32 31 30 27 20 14 20 26 31 34 27 27 29 31 28 30 20 50 49 45 45 44 44 46 42 42 40 42 37 34 38 40 42 41 26 22 32 19 20 19 22 23
32 30 32 33 27 22 17 17 26 29 34 41 49 45 41 38 33 34 28 38 43 54 47 56 49 45 45 49 48 44 46 41 35 37 41 44 37 35 23 21 15 17 18
Wind_Direction_500mb
172 170 173 178 175 173 165 163 161 161 161 162 165 165 162 163 172 162 150 145 135 127 124 119 114 102 99 99 109 100 104 111 102 95 111 103 91 97 100 99 86 73 98
169 170 172 176 178 174 167 162 160 161 160 158 159 158 159 157 161 170 170 166 153 139 129 117 111 103 97 97 99 102 103 104 105 90 103 101 102 85 79 85 82 91 92
175 173 174 176 180 179 172 169 167 166 164 160 159 158 155 154 153 157 163 157 156 140 132 129 121 109 95 91 95 103 100 104 105 100 108 100 101 88 85 92 83 101 97
181 178 178 180 181 183 178 178 177 176 174 165 159 157 155 157 162 155 155 157 152 142 142 136 127 115 99 87 88 94 94 95 108 113 113 107 105 98 98 98 89 96 102
182 182 182 185 186 184 183 181 179 180 180 175 170 166 159 155 158 172 161 161 155 145 140 137 131 118 100 90 90 91 89 86 100 121 129 123 117 119 126 127 113 106 87
190 186 186 187 189 184 184 182 180 180 180 182 177 174 172 169 158 162 166 167 160 148 141 143 138 126 110 104 92 91 83 77 90 121 121 113 108 102 123 144 119 91 83
198 195 191 188 189 185 185 185 182 177 181 187 191 185 179 174 170 168 170 170 165 152 147 150 136 125 116 106 100 92 89 79 92 111 102 111 102 98 97 108 117 101 83
208 197 193 190 191 188 186 187 186 186 189 197 196 193 186 180 172 170 171 174 168 150 149 145 137 138 120 108 105 102 88 74 93 102 98 112 103 113 93 92 111 122 115
209 198 193 194 195 192 191 189 192 191 191 200 203 198 191 182 164 168 171 169 161 153 148 142 144 144 123 123 117 107 87 76 79 78 93 127 121 111 117 50 93 122 143
204 204 202 200 197 192 196 194 192 193 194 199 197 180 176 173 167 171 172 169 169 159 157 152 150 149 130 121 109 95 90 86 64 55 53 108 129 128 165 115 81 68 73
323 209 218 214 199 193 195 195 193 194 196 192 185 175 170 172 174 173 178 175 171 167 166 162 158 156 143 120 62 73 83 95 61 50 33 41 152 156 129 85 56 53 29
270 293 330 232 206 195 193 193 195 202 204 200 192 185 173 171 177 175 179 183 174 170 169 169 166 161 151 131 43 6 18 53 86 36 30 15 355 267 322 335 346 344 331
336 269 269 306 199 197 196 199 201 201 203 201 195 191 183 174 178 180 181 183 169 172 173 173 174 168 160 157 141 334 345 34 3 353 353 1 349 348 330 338 326 302 299
46 45 305 336 175 196 202 204 204 208 201 194 193 192 191 182 176 180 190 189 180 176 183 179 176 173 168 175 168 241 321 296 317 330 313 325 331 322 323 321 316 309 305
38 16 338 314 262 181 201 211 214 211 200 191 195 197 197 191 182 179 186 195 197 192 183 179 182 185 189 192 209 205 259 281 279 284 298 329 310 313 313 306 300 307 319
54 42 26 307 326 214 190 203 207 205 196 195 199 199 199 199 191 185 183 191 197 200 194 193 192 196 201 210 236 235 261 279 274 267 275 291 294 299 292 294 289 294 301
14 36 324 327 331 360 166 201 204 200 198 203 201 198 201 196 198 199 192 188 194 192 193 196 193 201 207 220 230 247 268 271 267 270 273 282 287 289 294 279 271 276 274
4 32 73 131 325 295 315 301 216 209 206 205 199 201 201 200 202 203 211 207 194 194 195 192 192 202 209 217 230 249 256 262 266 274 279 285 289 286 287 290 291 279 277
353 342 346 316 160 120 305 307 297 214 210 208 204 202 205 204 203 208 212 211 209 203 205 206 202 208 215 226 237 246 263 269 278 274 276 282 286 284 284 282 283 283 286
346 318 306 316 322 112 212 311 283 254 235 213 210 205 207 208 210 215 217 217 216 211 211 219 222 219 225 231 240 246 257 264 270 269 274 275 279 283 285 282 281 282 285
345 332 313 313 305 309 170 195 204 205 263 222 215 209 203 211 215 217 217 216 219 224 224 227 229 227 229 230 240 251 260 266 269 274 275 272 269 270 275 279 270 288 282
358 347 332 306 284 273 264 165 187 195 201 244 201 220 196 202 211 224 223 220 223 227 227 230 237 232 232 237 245 253 271 277 275 262 258 262 232 237 254 283 274 287 291
0 355 341 328 299 265 260 222 211 193 176 198 235 152 200 209 216 218 221 224 225 229 231 234 236 235 237 238 240 237 249 254 291 255 243 258 215 236 287 295 286 281 284
356 353 347 338 325 293 261 238 240 225 223 192 204 214 186 219 228 219 214 219 225 228 230 233 237 238 238 240 243 243 245 255 282 292 243 224 267 298 293 296 292 289 288
352 349 351 344 336 323 283 262 233 236 226 219 205 199 222 224 228 230 217 228 225 231 230 234 235 241 244 243 243 246 248 251 255 258 275 273 280 297 309 319 307 295 274
351 348 354 350 341 337 320 277 256 240 233 233 237 238 235 238 223 240 231 238 243 235 237 240 238 241 249 249 249 249 249 247 252 256 272 286 293 307 304 310 312 296 289
Wind_Speed_850mb
60 55 47 44 41 38 34 31 32 35 35 35 33 31 31 34 34 32 30 24 27 23 37 36 32 27 25 27 28 26 31 31 35 27 39 37 30 28 25 20 20 30 37
65 57 49 47 41 39 37 33 31 35 37 37 33 33 32 33 35 35 27 22 23 28 35 33 29 27 27 26 25 24 32 40 31 32 48 39 30 26 23 24 26 37 31
62 56 51 49 43 41 39 35 31 32 35 34 34 33 31 32 31 32 30 33 33 39 35 31 30 29 26 25 25 31 32 32 33 36 44 39 28 24 30 27 34 28 29
59 56 51 48 43 42 42 36 31 33 33 34 34 35 31 32 31 33 36 38 38 39 33 30 30 29 25 23 26 30 33 29 25 31 37 39 32 22 30 24 25 26 25
60 57 52 47 44 43 41 37 33 32 34 33 34 36 32 28 29 32 37 43 39 39 34 27 25 26 23 19 22 26 29 26 23 26 28 30 26 21 27 26 22 17 17
54 56 53 48 46 43 42 39 39 35 33 32 33 36 36 28 25 29 39 50 44 39 34 27 22 24 20 17 18 21 25 22 14 17 18 19 21 19 18 17 10 14 18
48 52 54 51 51 45 44 40 41 38 34 32 31 33 34 34 27 27 40 52 47 36 30 28 22 20 15 15 18 19 21 20 16 13 18 25 18 23 20 15 22 24 15
44 51 49 49 51 48 47 42 41 35 32 30 30 31 32 35 34 31 48 49 39 34 33 28 23 19 16 16 17 17 16 17 15 11 13 16 18 21 17 13 15 19 24
46 48 50 50 51 47 47 44 41 36 31 25 28 29 31 34 36 38 51 48 36 36 32 30 24 20 18 16 16 15 14 16 17 13 9 11 17 19 12 4 13 12 7
35 39 46 52 52 50 46 43 42 36 29 26 28 27 28 37 43 44 45 35 35 34 32 32 30 25 20 13 13 12 9 9 10 10 11 4 10 12 14 4 6 7 8
28 23 38 47 53 52 48 44 40 33 28 30 31 30 29 37 44 44 43 36 34 35 35 35 35 32 23 15 9 9 8 8 9 11 11 5 2 5 3 3 5 6 6
51 45 41 37 54 51 51 49 44 35 30 35 35 34 31 32 43 42 44 40 31 39 38 36 33 33 26 16 5 8 6 4 8 11 12 10 4 2 2 3 3 4 6
21 40 60 62 62 56 52 49 43 36 35 37 38 36 35 33 41 45 46 38 37 38 38 39 34 31 27 16 8 5 14 1 7 9 8 8 6 4 5 6 7 8 9
36 20 36 61 51 52 51 49 41 38 42 44 43 40 40 34 37 46 46 43 37 39 36 38 35 33 27 20 13 4 8 10 10 11 10 9 6 8 10 9 10 11 13
35 22 6 52 18 54 47 41 38 39 44 46 45 41 42 37 35 38 41 42 38 37 38 38 33 32 25 20 15 14 9 16 17 12 9 10 10 12 14 13 14 17 19
26 29 24 25 45 31 51 42 38 41 43 45 46 44 43 40 37 36 36 35 36 35 38 39 36 32 29 22 19 18 13 24 23 20 18 17 16 18 18 16 14 20 24
17 12 7 28 26 38 19 44 43 42 48 44 44 45 45 44 40 34 34 34 29 31 31 34 38 33 33 27 24 22 25 29 25 24 23 23 25 26 27 26 23 22 22
17 11 10 9 19 42 47 14 45 48 50 51 50 48 44 45 42 38 36 34 31 31 33 35 37 39 34 31 28 27 23 26 24 20 23 23 24 26 28 27 25 27 30
18 11 9 8 12 10 26 23 15 50 56 57 54 52 50 48 43 40 38 38 36 36 33 37 38 37 35 32 33 29 29 29 28 31 28 28 29 29 30 32 34 30 29
20 16 13 14 8 7 11 17 15 14 22 63 58 58 53 48 46 45 43 45 42 42 36 38 37 37 36 31 33 35 35 34 33 36 35 33 33 33 32 33 27 23 22
22 19 18 17 12 8 16 13 18 17 19 36 43 71 63 50 47 46 44 46 48 45 42 39 42 41 41 37 38 37 36 38 38 33 36 34 29 20 18 13 9 11 13
34 28 23 17 18 14 8 11 10 11 17 20 20 36 61 55 52 48 46 46 48 49 49 46 45 49 46 40 41 35 29 27 26 19 11 11 9 9 4 7 9 13 17
36 31 28 22 16 17 20 13 17 13 13 23 5 10 49 52 54 53 53 49 48 49 53 50 46 47 47 44 42 32 11 13 7 14 11 7 10 5 13 19 23 25 26
37 33 29 27 22 14 22 16 24 26 23 18 20 12 35 27 68 58 54 50 44 43 46 46 43 39 39 44 44 46 40 36 15 12 15 12 14 17 18 24 28 31 32
35 32 31 30 27 20 14 20 26 31 34 27 27 29 31 28 30 20 50 49 45 45 44 44 46 42 42 40 42 37 34 38 40 42 41 26 22 32 19 20 19 22 23
32 30 32 33 27 22 17 17 26 29 34 41 49 45 41 38 33 34 28 38 43 54 47 56 49 45 45 49 48 44 46 41 35 37 41 44 37 35 23 21 15 17 18
Wind_Direction_850mb
172 170 173 178 175 173 165 163 161 161 161 162 165 165 162 163 172 162 150 145 135 127 124 119 114 102 99 99 109 100 104 111 102 95 111 103 91 97 100 99 86 73 98
169 170 172 176 178 174 167 162 160 161 160 158 159 158 159 157 161 170 170 166 153 139 129 117 111 103 97 97 99 102 103 104 105 90 103 101 102 85 79 85 82 91 92
175 173 174 176 180 179 172 169 167 166 164 160 159 158 155 154 153 157 163 157 156 140 132 129 121 109 95 91 95 103 100 104 105 100 108 100 101 88 85 92 83 101 97
181 178 178 180 181 183 178 178 177 176 174 165 159 157 155 157 162 155 155 157 152 142 142 136 127 115 99 87 88 94 94 95 108 113 113 107 105 98 98 98 89 96 102
182 182 182 185 186 184 183 181 179 180 180 175 170 166 159 155 158 172 161 161 155 145 140 137 131 118 100 90 90 91 89 86 100 121 129 123 117 119 126 127 113 106 87
190 186 186 187 189 184 184 182 180 180 180 182 177 174 172 169 158 162 166 167 160 148 141 143 138 126 110 104 92 91 83 77 90 121 121 113 108 102 123 144 119 91 83
198 195 191 188 189 185 185 185 182 177 181 187 191 185 179 174 170 168 170 170 165 152 147 150 136 125 116 106 100 92 89 79 92 111 102 111 102 98 97 108 117 101 83
208 197 193 190 191 188 186 187 186 186 189 197 196 193 186 180 172 170 171 174 168 150 149 145 137 138 120 108 105 102 88 74 93 102 98 112 103 113 93 92 111 122 115
209 198 193 194 195 192 191 189 192 191 191 200 203 198 191 182 164 168 171 169 161 153 148 142 144 144 123 123 117 107 87 76 79 78 93 127 121 111 117 50 93 122 143
204 204 202 200 197 192 196 194 192 193 194 199 197 180 176 173 167 171 172 169 169 159 157 152 150 149 130 121 109 95 90 86 64 55 53 108 129 128 165 115 81 68 73
323 209 218 214 199 193 195 195 193 194 196 192 185 175 170 172 174 173 178 175 171 167 166 162 158 156 143 120 62 73 83 95 61 50 33 41 152 156 129 85 56 53 29
270 293 330 232 206 195 193 193 195 202 204 200 192 185 173 171 177 175 179 183 174 170 169 169 166 161 151 131 43 6 18 53 86 36 30 15 355 267 322 335 346 344 331
336 269 269 306 199 197 196 199 201 201 203 201 195 191 183 174 178 180 181 183 169 172 173 173 174 168 160 157 141 334 345 34 3 353 353 1 349 348 330 338 326 302 299
46 45 305 336 175 196 202 204 204 208 201 194 193 192 191 182 176 180 190 189 180 176 183 179 176 173 168 175 168 241 321 296 317 330 313 325 331 322 323 321 316 309 305
38 16 338 314 262 181 201 211 214 211 200 191 195 197 197 191 182 179 186 195 197 192 183 179 182 185 189 192 209 205 259 281 279 284 298 329 310 313 313 306 300 307 319
54 42 26 307 326 214 190 203 207 205 196 195 199 199 199 199 191 185 183 191 197 200 194 193 192 196 201 210 236 235 261 279 274 267 275 291 294 299 292 294 289 294 301
14 36 324 327 331 360 166 201 204 200 198 203 201 198 201 196 198 199 192 188 194 192 193 196 193 201 207 220 230 247 268 271 267 270 273 282 287 289 294 279 271 276 274
4 32 73 131 325 295 315 301 216 209 206 205 199 201 201 200 202 203 211 207 194 194 195 192 192 202 209 217 230 249 256 262 266 274 279 285 289 286 287 290 291 279 277
353 342 346 316 160 120 305 307 297 214 210 208 204 202 205 204 203 208 212 211 209 203 205 206 202 208 215 226 237 246 263 269 278 274 276 282 286 284 284 282 283 283 286
346 318 306 316 322 112 212 311 283 254 235 213 210 205 207 208 210 215 217 217 216 211 211 219 222 219 225 231 240 246 257 264 270 269 274 275 279 283 285 282 281 282 285
345 332 313 313 305 309 170 195 204 205 263 222 215 209 203 211 215 217 217 216 219 224 224 227 229 227 229 230 240 251 260 266 269 274 275 272 269 270 275 279 270 288 282
358 347 332 306 284 273 264 165 187 195 201 244 201 220 196 202 211 224 223 220 223 227 227 230 237 232 232 237 245 253 271 277 275 262 258 262 232 237 254 283 274 287 291
0 355 341 328 299 265 260 222 211 193 176 198 235 152 200 209 216 218 221 224 225 229 231 234 236 235 237 238 240 237 249 254 291 255 243 258 215 236 287 295 286 281 284
356 353 347 338 325 293 261 238 240 225 223 192 204 214 186 219 228 219 214 219 225 228 230 233 237 238 238 240 243 243 245 255 282 292 243 224 267 298 293 296 292 289 288
352 349 351 344 336 323 283 262 233 236 226 219 205 199 222 224 228 230 217 228 225 231 230 234 235 241 244 243 243 246 248 251 255 258 275 273 280 297 309 319 307 295 274
351 348 354 350 341 337 320 277 256 240 233 233 237 238 235 238 223 240 231 238 243 235 237 240 238 241 249 249 249 249 249 247 252 256 272 286 293 307 304 310 312 296 289